{"data":{"norad_id":51822,"intl_designator":"2022-018A","name":"LUDI TANCE 1-01B (L-SA*)","alt_names":[],"object_type":"PAYLOAD","status":"ACTIVE","operator":null,"country":"PRC","launch_date":"2022-02-26","launch_site_code":"JSC","launch_vehicle":null,"mission":null,"orbit_class":"UNKNOWN","rcs_meters":null,"size_class":null,"mass_kg":null,"dimensions":null,"purposes":[],"wikipedia_slug":null,"has_3d_model":false,"image_url":null,"decayed_at":null,"tle_current":{"epoch":"2026-09-20T22:42:03.937824Z","epoch_age_seconds":80320,"freshness":"FRESH","line1":"1 51822U 22018A   26263.94587891  .00000322  00000+0  40597-4 0  9996","line2":"2 51822  97.8113 270.0105 0001549  87.9736 272.1658 14.88420416247959","mean_motion":14.88420416,"eccentricity":0.0001549,"inclination_deg":97.8113,"raan_deg":270.0105,"arg_perigee_deg":87.9736,"mean_anomaly_deg":272.1658,"bstar":4.0597e-5,"rev_number":24795,"period_min":96.746858919731,"perigee_km":601.78899930462,"apogee_km":603.95171538392,"semimajor_km":6981.0073573443,"source":"CELESTRAK","updated_at":"2026-09-21T09:00:08.365319Z"}}}